When you browse on this site, cookies collect data to enhance your experience and personalize the content and advertising you see.
Visit our Privacy Policy to learn more. By continuing to use the site, you agree to this use of cookies and data.
  • In United Kingdom
  • List of Countries
  • For 7 days
  • Water Temperature
  • Satellite Maps
  • Weather Map
  • Weather Widgets
  • user-avatar
    Login

    Hourly Weather Aberdour

    Today, 23 April, Tuesday

    Time Temperature Precipitation Wind Pressure Humidity
    00:00 +8°C° 0 mm 3 mps 742 mmHg 80%
    01:00 +8°C° 0 mm 3 mps 742 mmHg 81%
    02:00 +8°C° 0 mm 3 mps 742 mmHg 83%
    03:00 +8°C° 0 mm 3 mps 742 mmHg 84%
    04:00 +8°C° 0 mm 3 mps 742 mmHg 86%
    05:00 +8°C° 0 mm 3 mps 742 mmHg 87%
    06:00 +7°C° 0 mm 4 mps 741 mmHg 89%
    07:00 +8°C° 0 mm 4 mps 741 mmHg 85%
    08:00 +10°C° 0 mm 5 mps 741 mmHg 81%
    09:00 +12°C° 0 mm 5 mps 741 mmHg 77%
    10:00 +13°C° 0 mm 6 mps 741 mmHg 73%
    11:00 +14°C° 0 mm 6 mps 741 mmHg 69%
    12:00 +15°C° 0 mm 7 mps 741 mmHg 65%
    13:00 +14°C° 0 mm 7 mps 741 mmHg 66%
    14:00 +14°C° 0 mm 7 mps 741 mmHg 67%
    15:00 +12°C° 0 mm 7 mps 740 mmHg 68%
    16:00 +11°C° 0 mm 7 mps 740 mmHg 72%
    17:00 +10°C° 0 mm 6 mps 740 mmHg 76%
    18:00 +9°C° 0 mm 6 mps 740 mmHg 80%
    19:00 +8°C° 0 mm 6 mps 740 mmHg 84%
    20:00 +8°C° 0 mm 5 mps 740 mmHg 87%
    21:00 +7°C° 0 mm 5 mps 740 mmHg 91%
    22:00 +7°C° 0 mm 5 mps 740 mmHg 92%
    23:00 +6°C° 0 mm 5 mps 740 mmHg 93%

    Tomorrow, 24 April, Wednesday

    Time Temperature Precipitation Wind Pressure Humidity
    00:00 +6°C° 0 mm 5 mps 740 mmHg 94%
    01:00 +6°C° 0 mm 5 mps 739 mmHg 93%
    02:00 +6°C° 0 mm 5 mps 739 mmHg 93%
    03:00 +7°C° 0 mm 5 mps 738 mmHg 92%
    04:00 +7°C° 0 mm 5 mps 738 mmHg 91%
    05:00 +7°C° 0 mm 6 mps 738 mmHg 90%
    06:00 +8°C° 0 mm 6 mps 738 mmHg 89%
    07:00 +8°C° 0 mm 6 mps 737 mmHg 89%
    08:00 +8°C° 0 mm 7 mps 737 mmHg 89%
    09:00 +8°C° 0 mm 7 mps 737 mmHg 88%
    10:00 +8°C° 0.1 mm 7 mps 737 mmHg 89%
    11:00 +8°C° 0.1 mm 7 mps 736 mmHg 89%
    12:00 +7°C° 0.1 mm 8 mps 736 mmHg 90%
    13:00 +7°C° 0 mm 8 mps 736 mmHg 90%
    14:00 +7°C° 0 mm 8 mps 735 mmHg 89%
    15:00 +7°C° 0 mm 8 mps 735 mmHg 89%
    16:00 +8°C° 0.2 mm 7 mps 734 mmHg 91%
    17:00 +8°C° 0.2 mm 7 mps 734 mmHg 92%
    18:00 +8°C° 0.2 mm 7 mps 733 mmHg 93%
    19:00 +8°C° 0.1 mm 6 mps 733 mmHg 94%
    20:00 +8°C° 0.1 mm 5 mps 733 mmHg 95%
    21:00 +8°C° 0.1 mm 4 mps 733 mmHg 96%
    22:00 +8°C° 0.2 mm 4 mps 734 mmHg 95%
    23:00 +8°C° 0.2 mm 3 mps 734 mmHg 94%

    Day after tomorrow, 25 April, Thursday

    Time Temperature Precipitation Wind Pressure Humidity
    00:00 +8°C° 0.2 mm 3 mps 735 mmHg 92%
    01:00 +8°C° 0 mm 3 mps 735 mmHg 92%
    02:00 +8°C° 0 mm 2 mps 735 mmHg 92%
    03:00 +7°C° 0 mm 2 mps 735 mmHg 92%
    04:00 +7°C° 0 mm 2 mps 735 mmHg 92%
    05:00 +8°C° 0 mm 1 mps 735 mmHg 91%
    06:00 +8°C° 0 mm 1 mps 736 mmHg 91%
    07:00 +9°C° 0 mm 2 mps 736 mmHg 85%
    08:00 +10°C° 0 mm 3 mps 736 mmHg 78%
    09:00 +12°C° 0 mm 3 mps 736 mmHg 72%
    10:00 +12°C° 0.2 mm 4 mps 737 mmHg 72%
    11:00 +12°C° 0.2 mm 5 mps 737 mmHg 72%
    12:00 +11°C° 0.2 mm 6 mps 737 mmHg 72%
    13:00 +10°C° 2.7 mm 5 mps 737 mmHg 79%
    14:00 +8°C° 2.7 mm 4 mps 736 mmHg 87%
    15:00 +8°C° 2.7 mm 3 mps 736 mmHg 95%
    16:00 +8°C° 1 mm 3 mps 737 mmHg 92%
    17:00 +9°C° 1 mm 3 mps 737 mmHg 89%
    18:00 +9°C° 1 mm 3 mps 738 mmHg 85%
    19:00 +8°C° 0 mm 3 mps 739 mmHg 86%
    20:00 +7°C° 0 mm 3 mps 739 mmHg 87%
    21:00 +7°C° 0 mm 3 mps 740 mmHg 88%
    22:00 +6°C° 0 mm 2 mps 741 mmHg 88%
    23:00 +6°C° 0 mm 2 mps 741 mmHg 89%

    26 April, Friday

    Time Temperature Precipitation Wind Pressure Humidity
    00:00 +5°C° 0 mm 2 mps 741 mmHg 90%
    01:00 +6°C° 0 mm 1 mps 742 mmHg 90%
    02:00 +6°C° 0 mm 1 mps 742 mmHg 90%
    03:00 +5°C° 0 mm 1 mps 742 mmHg 90%
    04:00 +6°C° 0 mm 1 mps 742 mmHg 90%
    05:00 +6°C° 0 mm 1 mps 742 mmHg 89%
    06:00 +5°C° 0 mm 0 mps 742 mmHg 89%
    07:00 +8°C° 0 mm 1 mps 742 mmHg 83%
    08:00 +10°C° 0 mm 1 mps 743 mmHg 77%
    09:00 +12°C° 0 mm 1 mps 743 mmHg 72%
    10:00 +12°C° 0.2 mm 1 mps 743 mmHg 67%
    11:00 +13°C° 0.2 mm 2 mps 743 mmHg 63%
    12:00 +14°C° 0.2 mm 2 mps 743 mmHg 59%
    13:00 +13°C° 0.5 mm 3 mps 743 mmHg 60%
    14:00 +13°C° 0.5 mm 3 mps 743 mmHg 60%
    15:00 +13°C° 0.5 mm 3 mps 743 mmHg 61%
    16:00 +12°C° 0.3 mm 3 mps 743 mmHg 65%
    17:00 +12°C° 0.3 mm 3 mps 743 mmHg 69%
    18:00 +12°C° 0.3 mm 2 mps 743 mmHg 73%
    19:00 +10°C° 0 mm 2 mps 744 mmHg 79%
    20:00 +8°C° 0 mm 2 mps 744 mmHg 84%
    21:00 +7°C° 0 mm 2 mps 744 mmHg 90%
    22:00 +7°C° 0 mm 2 mps 745 mmHg 91%
    23:00 +6°C° 0 mm 2 mps 745 mmHg 93%

    27 April, Saturday

    Time Temperature Precipitation Wind Pressure Humidity
    00:00 +5°C° 0 mm 3 mps 745 mmHg 94%
    01:00 +5°C° 0.3 mm 3 mps 745 mmHg 93%
    02:00 +5°C° 0.3 mm 3 mps 745 mmHg 92%
    03:00 +5°C° 0.3 mm 3 mps 746 mmHg 92%
    04:00 +5°C° 0.5 mm 4 mps 746 mmHg 91%
    05:00 +5°C° 0.5 mm 4 mps 747 mmHg 89%
    06:00 +5°C° 0.5 mm 5 mps 747 mmHg 88%
    07:00 +5°C° 1 mm 5 mps 748 mmHg 86%
    08:00 +5°C° 1 mm 5 mps 749 mmHg 84%
    09:00 +4°C° 1 mm 6 mps 749 mmHg 83%
    10:00 +5°C° 0.3 mm 5 mps 750 mmHg 77%
    11:00 +6°C° 0.3 mm 5 mps 751 mmHg 72%
    12:00 +7°C° 0.3 mm 4 mps 752 mmHg 67%
    13:00 +8°C° 0 mm 4 mps 752 mmHg 61%
    14:00 +10°C° 0 mm 3 mps 753 mmHg 56%
    15:00 +11°C° 0 mm 3 mps 753 mmHg 50%
    16:00 +11°C° 0 mm 3 mps 753 mmHg 53%
    17:00 +10°C° 0 mm 3 mps 754 mmHg 56%
    18:00 +10°C° 0 mm 3 mps 754 mmHg 59%
    19:00 +8°C° 0 mm 3 mps 754 mmHg 58%
    20:00 +7°C° 0 mm 3 mps 755 mmHg 57%
    21:00 +5°C° 0 mm 3 mps 755 mmHg 57%
    22:00 +5°C° 0 mm 3 mps 755 mmHg 62%
    23:00 +4°C° 0 mm 3 mps 754 mmHg 66%

    28 April, Sunday

    Time Temperature Precipitation Wind Pressure Humidity
    00:00 +4°C° 0 mm 3 mps 754 mmHg 71%
    01:00 +5°C° 0.1 mm 3 mps 753 mmHg 76%
    02:00 +5°C° 0.1 mm 4 mps 753 mmHg 81%
    03:00 +5°C° 0.1 mm 4 mps 752 mmHg 86%
    04:00 +6°C° 0.3 mm 4 mps 752 mmHg 88%
    05:00 +6°C° 0.3 mm 4 mps 751 mmHg 90%
    06:00 +7°C° 0.3 mm 4 mps 751 mmHg 92%
    07:00 +8°C° 0.1 mm 5 mps 750 mmHg 89%
    08:00 +9°C° 0.1 mm 5 mps 750 mmHg 87%
    09:00 +10°C° 0.1 mm 6 mps 750 mmHg 84%
    10:00 +10°C° 0 mm 6 mps 750 mmHg 84%
    11:00 +10°C° 0 mm 6 mps 749 mmHg 83%
    12:00 +11°C° 0 mm 6 mps 749 mmHg 83%
    13:00 +11°C° 0 mm 6 mps 749 mmHg 81%
    14:00 +11°C° 0 mm 6 mps 748 mmHg 80%
    15:00 +11°C° 0 mm 6 mps 748 mmHg 78%
    16:00 +12°C° 0.2 mm 5 mps 747 mmHg 81%
    17:00 +10°C° 0.2 mm 5 mps 747 mmHg 84%
    18:00 +10°C° 0.2 mm 5 mps 747 mmHg 87%
    19:00 +10°C° 0.1 mm 4 mps 747 mmHg 89%
    20:00 +10°C° 0.1 mm 3 mps 746 mmHg 92%
    21:00 +9°C° 0.1 mm 2 mps 746 mmHg 94%
    22:00 +9°C° 0.2 mm 2 mps 746 mmHg 95%
    23:00 +10°C° 0.2 mm 1 mps 746 mmHg 96%
    Show more